"Pseudo-MPEC" for P12omkz

Created 2026 Jul 16 19:35:03 UT using Find_Orb

Click here for an explanation of pseudo-MPECs

 
 Astrometry: 
     P12omkz 0C2026 07 08.46210420 02 42.101-31 54 14.24   ~7FDZ 21.41GVNEOCPF51
     P12omkz 0C2026 07 08.47193120 02 44.040-31 54 27.25   ~7FDZ 21.69GVNEOCPF51
     P12omkz 0C2026 07 08.48172220 02 45.947-31 54 39.81   ~7FDZ 21.12GVNEOCPF51
     P12omkz 0C2026 07 08.49152020 02 47.887-31 54 52.51   ~7FDZ 21.28GVNEOCPF51
     P12omkz*0C2026 07 14.44332520 26 05.040-34 00 18.91   ~7ECK 21.59wXNEOCPF51
     P12omkz 0C2026 07 14.46430020 26 09.802-34 00 44.18   ~7ECK 21.15wXNEOCPF51
     P12omkz 0C2026 07 14.47477720 26 12.215-34 00 57.08   ~7ECK 21.44wXNEOCPF51
     P12omkz !C2026 07 15.06560920 28 41.686-34 12 42.14   ~7FAo 20.9 GWNEOCPJ04
     P12omkz !C2026 07 15.07670920 28 44.265-34 12 55.84   ~7FAo 21.6 GWNEOCPJ04
     P12omkz !C2026 07 15.08775020 28 46.792-34 13 08.65   ~7FAo 20.2 GWNEOCPJ04
     P12omkz 3C2026 07 15.43089720 30 15.225-34 19 46.12   ~7FCK 21.12GVNEOCPT14
     P12omkz 3C2026 07 15.43187220 30 15.451-34 19 47.33   ~7FCK 21.12GVNEOCPT14
     P12omkz 3C2026 07 15.43284220 30 15.676-34 19 48.47   ~7FCK 21.00GVNEOCPT14

Station data:
(F51) Pan-STARRS 1, Haleakala  (N20.707234 W156.255910)  US/Hawaii.
   Observers J. Herman, T. Lowe, P. Minguez, A. Schultz, I. Smith. Measurers
   K. Chambers, T. de Boer, J. Fairlamb, H. Gao, M. Huber, C.-C. Lin, E.
   Magnier, Y. Ramanjooloo, R. Wainscoat, R. Weryk. 1.8-m Ritchey-Chrétien +
   CCD.
(J04) ESA Optical Ground Station, Tenerife  (N28.300957 W16.511820)  Canary
   Islands (Spain).  Observer R. Kresken. Measurers M. Micheli, D. Koschny,
   E. Schwab, M. Busch, A. Knöfel. 1.0-m f/4.4 reflector + CCD.
(T14) Mauna Kea-UH/Tholen NEO Follow-Up (CFHT)  (N19.825252 W155.468876)
   US/Hawaii.  Observer R. Weryk. 3.6-m Canada-France-Hawaii Telescope.

Orbital elements:  P12omkz
   Perihelion 2026 Aug 4.924820 +/- 0.015 TT = 22:11:44.4 (JD 2461257.424820)
Epoch 2026 Jul 15.0 TT = JDT 2461236.5   Earth MOID: 0.1629   Ma: 0.0538
M 353.935011765 +/- 0.11            (J2000 ecliptic)             AutoNEOCP
n   0.289846612 +/- 0.00515         Peri.  230.288050 +/- 0.043
a   2.261295039 +/- 0.0268          Node    82.959297 +/- 0.040
e   0.48442046 +/- 0.00547          Incl.    4.285203 +/- 0.038
P   3.40045                H 23.89  G  0.15   U  9.2
q 1.165877451 +/- 0.00145    Q 3.356712627 +/- 0.0521
From 13 observations 2026 July 8-15; mean residual 0".13
Residuals in arcseconds: 
260708 F51  .12+  .00     260714 F51  .16-  .22+    260715 T14  .01+  .01+    
260708 F51  .13+  .12-    260714 F51  .20+  .08-    260715 T14  .00   .03-    
260708 F51  .17-  .07+    260715 J04  .05+  .21+    260715 T14  .01-  .01+    
260708 F51  .09-  .04+    260715 J04  .11+  .25-    
260714 F51  .01+  .07-    260715 J04  .30-  .01-    

Ephemerides (geocentric):
Date (UTC) HH   RA             Dec           delta  r     elong  mag " sig PA
---- --------  ------------   ------------  ------ ------ -----  --- --------
2026 07 16 20  20 36 17.585   -34 45 44.11  .17565 1.1848 162.2 21.3 .609 167
2026 07 16 21  20 36 28.526   -34 46 30.35  .17558 1.1848 162.2 21.3 .617 167
2026 07 16 22  20 36 39.475   -34 47 16.51  .17551 1.1847 162.2 21.3 .625 167
2026 07 16 23  20 36 50.432   -34 48 02.60  .17544 1.1846 162.2 21.3 .633 167
2026 07 17 00  20 37 01.398   -34 48 48.62  .17538 1.1845 162.1 21.3 .642 167
2026 07 17 01  20 37 12.371   -34 49 34.57  .17531 1.1844 162.1 21.3 .650 167
2026 07 17 02  20 37 23.353   -34 50 20.43  .17524 1.1843 162.1 21.3 .659 167
2026 07 17 03  20 37 34.343   -34 51 06.23  .17517 1.1843 162.1 21.3 .667 167
2026 07 17 04  20 37 45.342   -34 51 51.94  .17511 1.1842 162.1 21.3 .676 167
2026 07 17 05  20 37 56.348   -34 52 37.58  .17504 1.1841 162.1 21.3 .685 167
2026 07 17 06  20 38 07.362   -34 53 23.15  .17498 1.1840 162.0 21.3 .694 167
2026 07 17 07  20 38 18.385   -34 54 08.63  .17491 1.1839 162.0 21.3 .703 167
2026 07 17 08  20 38 29.415   -34 54 54.04  .17484 1.1839 162.0 21.3 .712 167
2026 07 17 09  20 38 40.454   -34 55 39.38  .17478 1.1838 162.0 21.3 .722 167
2026 07 17 10  20 38 51.501   -34 56 24.63  .17471 1.1837 162.0 21.3 .731 167
2026 07 17 11  20 39 02.556   -34 57 09.81  .17465 1.1836 162.0 21.3 .740 167
2026 07 17 12  20 39 13.618   -34 57 54.91  .17458 1.1836 161.9 21.3 .750 167
2026 07 17 13  20 39 24.689   -34 58 39.93  .17452 1.1835 161.9 21.3 .760 167
2026 07 17 14  20 39 35.768   -34 59 24.87  .17445 1.1834 161.9 21.3 .769 167
2026 07 17 15  20 39 46.854   -35 00 09.73  .17439 1.1833 161.9 21.3 .779 167
2026 07 17 16  20 39 57.949   -35 00 54.51  .17432 1.1832 161.9 21.3 .789 167
2026 07 17 17  20 40 09.051   -35 01 39.21  .17426 1.1832 161.9 21.3 .799 167
2026 07 17 18  20 40 20.162   -35 02 23.83  .17420 1.1831 161.8 21.3 .809 167
2026 07 17 19  20 40 31.280   -35 03 08.37  .17413 1.1830 161.8 21.3 .820 167
2026 07 17 20  20 40 42.406   -35 03 52.83  .17407 1.1829 161.8 21.3 .830 167
2026 07 17 21  20 40 53.540   -35 04 37.21  .17401 1.1828 161.8 21.3 .841 167
2026 07 17 22  20 41 04.682   -35 05 21.51  .17394 1.1828 161.8 21.3 .851 167
2026 07 17 23  20 41 15.831   -35 06 05.72  .17388 1.1827 161.8 21.3 .862 167
2026 07 18 00  20 41 26.988   -35 06 49.85  .17382 1.1826 161.7 21.3 .873 167
2026 07 18 01  20 41 38.154   -35 07 33.90  .17375 1.1825 161.7 21.3 .884 167
2026 07 18 02  20 41 49.326   -35 08 17.87  .17369 1.1825 161.7 21.3 .895 167
2026 07 18 03  20 42 00.507   -35 09 01.75  .17363 1.1824 161.7 21.3 .906 167
2026 07 18 04  20 42 11.695   -35 09 45.55  .17357 1.1823 161.7 21.3 .917 167
2026 07 18 05  20 42 22.891   -35 10 29.26  .17351 1.1822 161.7 21.3 .928 167
2026 07 18 06  20 42 34.094   -35 11 12.90  .17345 1.1822 161.6 21.3 .940 168
2026 07 18 07  20 42 45.305   -35 11 56.44  .17338 1.1821 161.6 21.3 .951 168
2026 07 18 08  20 42 56.524   -35 12 39.90  .17332 1.1820 161.6 21.3 .963 168
2026 07 18 09  20 43 07.750   -35 13 23.28  .17326 1.1819 161.6 21.3 .975 168
2026 07 18 10  20 43 18.984   -35 14 06.57  .17320 1.1819 161.6 21.3 .987 168
2026 07 18 11  20 43 30.225   -35 14 49.78  .17314 1.1818 161.5 21.3 1.00 168
2026 07 18 12  20 43 41.474   -35 15 32.89  .17308 1.1817 161.5 21.3 1.01 168
2026 07 18 13  20 43 52.730   -35 16 15.93  .17302 1.1816 161.5 21.3 1.02 168
2026 07 18 14  20 44 03.994   -35 16 58.87  .17296 1.1816 161.5 21.3 1.04 168
2026 07 18 15  20 44 15.265   -35 17 41.73  .17290 1.1815 161.5 21.3 1.05 168
2026 07 18 16  20 44 26.544   -35 18 24.50  .17284 1.1814 161.5 21.3 1.06 168
2026 07 18 17  20 44 37.830   -35 19 07.18  .17278 1.1813 161.4 21.3 1.07 168
2026 07 18 18  20 44 49.123   -35 19 49.78  .17273 1.1813 161.4 21.3 1.09 168
2026 07 18 19  20 45 00.424   -35 20 32.28  .17267 1.1812 161.4 21.3 1.10 168